Back to catalog

STARLINK-5528

AliveCommunicationsVLEO
NORAD 56890·PAYLOAD·🇺🇸 United States

Launched Jun 12, 2023 from Cape Canaveral Space Force Station

Loading…

Next Passes (next 24 hours)

TLE

FreshSource: CelesTrak SupGP

Epoch: Sep 15, 2026, 02:28 UTC

1 56890C 23083Q   26258.10326389  .00020949  00000+0  75873-3 0  2583
2 56890  43.0009  98.8375 0001152 262.4220 306.7707 15.27570622    11

Track STARLINK-5528 in real time with AllMySat

Download on the App Store